map of SXM home
Great Circle Mapper logo
SXM - Airport
Location
City:  Philipsburg, St. Maarten, Netherlands Antilles
Name:Princess Juliana International Airport
ICAO / IATA:TNCM / SXM

Details
Type:Airport (Aerodrome, Airfield)
Use:Public/Civil, International (customs port of entry)
Latitude:1802'27"N (18.040953)
Longitude:6306'32"W (-63.108899)
Datum:WGS 1984
Elevation:14 ft (4 m)
Runways:1
Longest:7708 × 148 ft (2349 × 45 m), paved

Time
Time Zone:UTC-4
Local Time:

Weather
METAR:TNCM 241800Z 13009KT 9999 SCT022 30/25 Q1012 A2990 NOSIG
TAF:TNCM 241738Z 2418/2518 13012KT P6SM SCT020
FM242200 10006KT P6SM FEW022
FM250500 08006KT P6SM VCSH SCT018
FM251400 13012KT P6SM FEW024

Related Locations
Nearby:
Farthest:WHM: 12248 mi / 19711 km
Wickham, WA, AU

Find:

   beyond  
but within

Other Information
Maps:
NOTAMs:
Links:
Sources:

  
flag of Netherlands Antilles
flag of St. Maarten
  

Airport Diagram

Airport diagram for SXM

Airport diagram (OBSOLETE) from NGA

Sectional Chart

Flight Planning
at skyvector.com

Satellite Image

Google Maps Satellite View

 

Copyright © 2004-2014 Karl L. Swartz. All rights reserved.
The Great Circle Mapper name and logo are trademarks of the Great Circle Mapper.
All other trademarks mentioned herein belong to their respective owners.
Please see credits for attibutions and further copyright information.

  Follow gcmap on Facebook Follow gcmap on Twitter

hCard Microformat

Geo Microformat